TimeHST,TemperatureF,Dew PointF,Humidity,Sea Level PressureIn,VisibilityMPH,Wind Direction,Wind SpeedMPH,Gust SpeedMPH,PrecipitationIn,Events,Conditions,WindDirDegrees,DateUTC
12:54 AM,73.9,72.0,93,30.04,10.0,NE,9.2,16.1,N/A,,Clear,50,2013-09-08 10:54:00
1:54 AM,73.9,72.0,93,30.03,10.0,East,8.1,-,N/A,,Mostly Cloudy,80,2013-09-08 11:54:00
2:54 AM,75.0,68.0,79,30.01,10.0,NE,6.9,-,N/A,,Clear,50,2013-09-08 12:54:00
3:54 AM,73.9,66.9,79,30.01,10.0,NNE,6.9,-,N/A,,Clear,30,2013-09-08 13:54:00
4:54 AM,73.9,68.0,82,30.01,10.0,NNE,10.4,-,N/A,,Clear,30,2013-09-08 14:54:00
5:54 AM,73.9,68.0,82,30.03,10.0,East,5.8,-,N/A,,Clear,90,2013-09-08 15:54:00
6:54 AM,75.9,68.0,76,30.03,10.0,NE,8.1,-,N/A,,Partly Cloudy,40,2013-09-08 16:54:00
7:54 AM,80.1,66.9,64,30.04,10.0,NNE,5.8,-,N/A,,Clear,30,2013-09-08 17:54:00
8:54 AM,82.0,66.9,60,30.05,10.0,SSE,9.2,-,N/A,,Clear,160,2013-09-08 18:54:00
9:54 AM,82.9,66.9,58,30.05,10.0,Variable,5.8,-,N/A,,Partly Cloudy,0,2013-09-08 19:54:00
10:54 AM,86.0,69.1,57,30.05,10.0,NE,9.2,18.4,N/A,,Scattered Clouds,40,2013-09-08 20:54:00
11:54 AM,87.1,70.0,57,30.04,10.0,NE,13.8,21.9,N/A,,Scattered Clouds,50,2013-09-08 21:54:00
12:54 PM,84.9,69.1,59,30.03,10.0,NE,15.0,21.9,N/A,,Clear,40,2013-09-08 22:54:00
1:54 PM,86.0,70.0,59,30.01,10.0,NE,13.8,26.5,N/A,,Partly Cloudy,50,2013-09-08 23:54:00
2:54 PM,84.0,70.0,63,30.01,10.0,NE,13.8,24.2,N/A,,Partly Cloudy,40,2013-09-09 00:54:00
3:54 PM,84.9,69.1,59,29.99,10.0,NE,16.1,23.0,N/A,,Scattered Clouds,50,2013-09-09 01:54:00
4:54 PM,82.0,71.1,69,30.01,10.0,NNE,12.7,21.9,N/A,,Scattered Clouds,30,2013-09-09 02:54:00
5:54 PM,79.0,70.0,74,30.03,10.0,NE,10.4,24.2,N/A,,Scattered Clouds,40,2013-09-09 03:54:00
6:54 PM,77.0,70.0,79,30.04,10.0,NE,12.7,19.6,N/A,,Partly Cloudy,50,2013-09-09 04:54:00
7:54 PM,75.9,72.0,87,30.06,10.0,NE,9.2,19.6,N/A,,Clear,40,2013-09-09 05:54:00
8:54 PM,75.0,66.9,76,30.08,10.0,NE,8.1,-,N/A,,Clear,50,2013-09-09 06:54:00
9:54 PM,75.9,64.9,69,30.09,10.0,NNE,8.1,-,N/A,,Clear,30,2013-09-09 07:54:00
10:54 PM,73.0,64.9,76,30.09,10.0,North,5.8,-,N/A,,Clear,360,2013-09-09 08:54:00
11:54 PM,75.0,68.0,79,30.08,10.0,NNE,6.9,-,N/A,,Clear,20,2013-09-09 09:54:00